Weather in Kassel

Germany     51°19′06″N   9°30′38″E
temp.,
°C
wind,
m/s
gust,
m/s
humid.,
%
clouds,
%
prec.,
mm/h
press.,
hPa
HPBL,
m
4 august, wed
wed423:00+12e119149 1.4 101310
02:00+11s1195100 1.5 101410
05:00+11ssw1197100 1.2 101312
08:00+13s129279 2.0 1014190
11:00+16s228093 0.1 1014695
14:00+20s226139 0.3 10131160
17:00+19ssw126781 2.6 1012974
20:00+17ne1181100 3.9 101211
5 august, thu
thu523:00+13ese118921 0.1 101211
02:00+12sse1191100 0.1 101211
05:00+12se1192100 0.0 101110
08:00+14sse1289100 0.1 1011105
11:00+17s2382100 0.9 1010364
14:00+20ssw337115 3.3 10091008
17:00+21s236210 1.3 10081187
20:00+17sse228290 3.1 100714
6 august, fri
fri623:00+14sse229282 0.1 100817
02:00+13s349762 0.1 100767
05:00+12s239819 0.0 100762
08:00+14s3592100 0.0 1007229
11:00+15s499292 2.1 1007651
14:00+19ssw687245 2.2 10061078
17:00+20wsw69648 0.7 10061342
20:00+18sw48750 0.9 1007398
7 august, sat
sat723:00+14s22931 0.0 100929
02:00+12s3396100 0.0 100947
05:00+11s2297100 0.0 100939
08:00+14s2488100 0.0 1009154
11:00+19s4668100 0.1 1007767
14:00+21ssw5863100 0.7 10071275
17:00+19ssw5877100 1.0 1007834
20:00+16s3793100 2.7 1007301
8 august, sun
sun823:00+15ssw3895100 1.4 1008280
02:00+13ssw369816 1.7 1010212
05:00+13sw61194100 0.0 1010552
08:00+14sw6109197 0.0 1012634
11:00+16sw697482 0.1 10131107
14:00+21sw710444 0.1 10132070
17:00+21w794560 0.0 10142156
20:00+18wsw48616 0.0 1016305